Gillette, WY

9:31 AM MDT on August 16, 2017 (GMT -0600)
Gillette-Campbell County

Weather History for KGCC - February, 2012

Change the Weather History Date:

Wednesday, February 15, 2012

  Actual Average Record
Temperature  
Mean Temperature 20 °F 27 °F  
Max Temperature 34 °F 38 °F 65 °F (2017)
Min Temperature 6 °F 16 °F 21 °F (2015)
Degree Days  
Heating Degree Days 45 38  
Month to date heating degree days 626 581  
Since 1 July heating degree days 4613 4936  
Cooling Degree Days 0 0  
Month to date cooling degree days 0 0  
Year to date cooling degree days 0 0  
Moisture  
Dew Point 15 °F    
Average Humidity 77    
Maximum Humidity 100    
Minimum Humidity 53    
Precipitation  
Precipitation 0.00 in 0.02 in 0.52 in (2016)
Month to date precipitation 0.17 0.23  
Year to date precipitation 0.71 0.62  
Sea Level Pressure  
Sea Level Pressure 30.08 in    
Wind  
Wind Speed 6 mph (West)    
Max Wind Speed 16 mph    
Max Gust Speed 21 mph    
Visibility 10 miles    
Events      
T = Trace of Precipitation, MM = Missing Value Source: NWS Daily Summary

Daily Weather History Graph

Daily Weather History Graph

Search for Another Location

Airport or City:

Trip Planner

Search our weather history database for the weather conditions in past years. The results will help you decide how hot, cold, wet, or windy it might be!

Date:

Astronomy

Feb. 15, 2012 Rise Set
Actual Time 7:02 AM MST 5:30 PM MST
Civil Twilight 6:32 AM MST 6:00 PM MST
Nautical Twilight 5:58 AM MST 6:34 PM MST
Astronomical Twilight 5:25 AM MST 7:08 PM MST
Moon 2:05 AM MST (2/15) 11:20 AM MST (2/15)
Length of Visible Light 11h 27m
Length of Day
10h 28m
Last Quarter, 38% of the Moon is Illuminated
Feb 15
Last Quarter
Feb 21
New
Feb 29
First Quarter
Mar 8
Full
Mar 14
Last Quarter

Hourly Weather History & Observations

Time (MST) Temp. Windchill Dew Point Humidity Pressure Visibility Wind Dir Wind Speed Gust Speed Precip Events Conditions
12:11 AM 17.6 °F 9.3 °F 15.8 °F 93% 29.83 in 10.0 mi West 5.8 mph - N/A   Mostly Cloudy
12:53 AM 23.0 °F 17.0 °F 21.9 °F 96% 29.91 in 10.0 mi West 4.6 mph - N/A   Overcast
1:51 AM 14.0 °F 5.1 °F 12.2 °F 93% 29.86 in 10.0 mi West 5.8 mph - N/A   Scattered Clouds
1:53 AM 14.0 °F 5.1 °F 12.9 °F 95% 29.96 in 10.0 mi West 5.8 mph - N/A   Scattered Clouds
2:53 AM 12.9 °F 5.2 °F 10.9 °F 92% 29.99 in 10.0 mi SW 4.6 mph - N/A   Scattered Clouds
3:53 AM 15.1 °F 5.2 °F 14.0 °F 95% 30.02 in 10.0 mi West 6.9 mph - N/A   Clear
4:53 AM 10.9 °F - 10.9 °F 100% 30.04 in 10.0 mi Calm Calm - N/A   Clear
5:53 AM 9.0 °F 2.4 °F 8.1 °F 96% 30.07 in 10.0 mi South 3.5 mph - N/A   Clear
6:53 AM 10.9 °F - 9.0 °F 92% 30.08 in 10.0 mi Calm Calm - N/A   Overcast
7:53 AM 18.0 °F 12.7 °F 16.0 °F 92% 30.08 in 10.0 mi SSW 3.5 mph - N/A   Overcast
8:53 AM 24.1 °F - 21.9 °F 91% 30.07 in 10.0 mi Calm Calm - N/A   Mostly Cloudy
9:53 AM 28.9 °F - 18.0 °F 64% 30.07 in 10.0 mi Calm Calm - N/A   Clear
10:53 AM 30.9 °F 27.5 °F 17.1 °F 57% 30.08 in 10.0 mi NW 3.5 mph - N/A   Clear
11:53 AM 30.9 °F 26.2 °F 21.9 °F 69% 30.09 in 10.0 mi WSW 4.6 mph - N/A   Clear
12:53 PM 33.1 °F 30.0 °F 21.9 °F 64% 30.06 in 10.0 mi West 3.5 mph - N/A   Clear
1:53 PM 32.0 °F 24.8 °F 19.9 °F 61% 30.09 in 10.0 mi West 8.1 mph - N/A   Overcast
2:53 PM 33.1 °F 26.1 °F 19.0 °F 56% 30.11 in 10.0 mi WNW 8.1 mph - N/A   Overcast
3:53 PM 32.0 °F 22.1 °F 19.0 °F 59% 30.11 in 10.0 mi NW 13.8 mph - N/A   Overcast
4:53 PM 30.9 °F 22.8 °F 16.0 °F 54% 30.15 in 10.0 mi NNW 9.2 mph - N/A   Mostly Cloudy
5:53 PM 25.0 °F 17.1 °F 14.0 °F 63% 30.20 in 10.0 mi NW 6.9 mph - N/A   Clear
6:53 PM 23.0 °F 14.7 °F 15.1 °F 72% 30.23 in 10.0 mi WNW 6.9 mph - N/A   Mostly Cloudy
7:53 PM 19.9 °F 12.1 °F 12.9 °F 74% 30.22 in 10.0 mi West 5.8 mph - N/A   Clear
8:53 PM 17.1 °F 10.0 °F 12.9 °F 84% 30.23 in 10.0 mi WSW 4.6 mph - N/A   Clear
9:53 PM 19.0 °F 10.0 °F 12.9 °F 77% 30.22 in 10.0 mi SW 6.9 mph - N/A   Clear
10:53 PM 21.0 °F 9.9 °F 12.9 °F 71% 30.20 in 10.0 mi SW 10.4 mph - N/A   Clear
11:53 PM 23.0 °F 11.7 °F 12.9 °F 65% 30.20 in 10.0 mi SW 11.5 mph - N/A   Clear